Weather History for Siemreap, Cambodia

Change the Weather History Date:

Sunday, February 24, 2013

  Actual Average Record
Temperature  
Mean Temperature 82 °F -  
Max Temperature 91 °F - - ()
Min Temperature 73 °F - - ()
Cooling Degree Days 17    
Growing Degree Days 32 (Base 50)    
Moisture  
Dew Point 64 °F    
Average Humidity 53    
Maximum Humidity 70    
Minimum Humidity 36    
Precipitation  
Precipitation 0.00 in - - ()
Sea Level Pressure  
Sea Level Pressure 29.84 in    
Wind  
Wind Speed 5 mph ()    
Max Wind Speed 12 mph    
Max Gust Speed -    
Visibility 6.0 miles    
Events      
T = Trace of Precipitation, MM = Missing Value Source: Averaged Metar Reports

Daily Weather History Graph

Daily Weather History Graph

Search for Another Location

Airport:

Trip Planner

Search our weather history database for the weather conditions in past years. The results will help you decide how hot, cold, wet, or windy it might be!

Date:

Astronomy

Feb. 24, 2013 Rise Set
Actual Time 6:23 AM ICT 6:12 PM ICT
Civil Twilight 6:02 AM ICT 6:33 PM ICT
Nautical Twilight 5:37 AM ICT 6:58 PM ICT
Astronomical Twilight 5:12 AM ICT 7:23 PM ICT
Moon 4:55 PM ICT (2/24) 4:53 AM ICT (2/24)
Length of Visible Light 12h 31m
Length of Day
11h 48m
Waxing Gibbous, 97% of the Moon is Illuminated
Feb 24
Waxing Gibbous
Feb 26
Full
Mar 5
Last Quarter
Mar 12
New
Mar 20
First Quarter

Hourly Weather History & Observations

Time (ICT) Temp. Heat Index Dew Point Humidity Pressure Visibility Wind Dir Wind Speed Gust Speed Precip Events Conditions
12:00 AM 80.6 °F 81.5 °F 60.8 °F 51% 29.89 in 5.6 mi North 8.1 mph - N/A   Scattered Clouds
12:30 AM 78.8 °F - 60.8 °F 54% 29.89 in 5.6 mi North 8.1 mph - N/A   Scattered Clouds
1:00 AM 78.8 °F - 60.8 °F 54% 29.86 in - North - - N/A   Scattered Clouds
7:00 AM 73.4 °F - 60.8 °F 65% 29.89 in 5.6 mi NNW 4.6 mph - N/A   Unknown
7:30 AM 73.4 °F - 60.8 °F 65% 29.89 in - NNW 11.5 mph - N/A   Clear
8:00 AM 75.2 °F - 60.8 °F 61% 29.89 in - North 3.5 mph - N/A   Clear
8:30 AM 77.0 °F - 60.8 °F 57% 29.92 in - NW 5.8 mph - N/A   Clear
9:00 AM 78.8 °F - 60.8 °F 54% 29.92 in - North 3.5 mph - N/A   Clear
9:30 AM 80.6 °F 81.5 °F 60.8 °F 51% 29.92 in - North 5.8 mph - N/A   Clear
10:00 AM 82.4 °F 82.9 °F 60.8 °F 48% 29.92 in 6.2 mi North 2.3 mph - N/A   Scattered Clouds
10:30 AM 86.0 °F 86.1 °F 60.8 °F 43% 29.92 in - East 3.5 mph - N/A   Clear
11:00 AM 86.0 °F 86.1 °F 60.8 °F 43% 29.89 in 6.2 mi South 2.3 mph - N/A   Scattered Clouds
12:00 PM 87.8 °F 87.6 °F 60.8 °F 40% 29.86 in 6.2 mi ENE 6.9 mph - N/A   Scattered Clouds
12:30 PM 89.6 °F 89.5 °F 60.8 °F 38% 29.86 in 6.2 mi East 6.9 mph - N/A   Scattered Clouds
1:00 PM 89.6 °F 89.5 °F 60.8 °F 38% 29.83 in 6.2 mi NNE 2.3 mph - N/A   Mostly Cloudy
2:00 PM 91.4 °F 91.4 °F 60.8 °F 36% 29.80 in 6.2 mi WNW 4.6 mph - N/A   Scattered Clouds
2:30 PM 91.4 °F 91.4 °F 60.8 °F 36% 29.77 in 6.2 mi West 4.6 mph - N/A   Scattered Clouds
3:00 PM 91.4 °F 92.1 °F 62.6 °F 38% 29.77 in 6.2 mi SW 5.8 mph - N/A   Scattered Clouds
3:30 PM 91.4 °F 92.1 °F 62.6 °F 38% 29.77 in 6.2 mi SW 5.8 mph - N/A   Scattered Clouds
4:00 PM 91.4 °F 92.1 °F 62.6 °F 38% 29.77 in 6.2 mi SSW 5.8 mph - N/A   Scattered Clouds
4:30 PM 89.6 °F 92.2 °F 66.2 °F 46% 29.77 in 6.2 mi SSW 6.9 mph - N/A   Scattered Clouds
5:30 PM 87.8 °F 89.4 °F 64.4 °F 46% 29.77 in 6.2 mi SSW 8.1 mph - N/A   Scattered Clouds
6:00 PM 86.0 °F 90.4 °F 69.8 °F 58% 29.77 in 6.2 mi SW 6.9 mph - N/A   Scattered Clouds
6:30 PM 86.0 °F 90.4 °F 69.8 °F 58% 29.77 in 6.2 mi SW 6.9 mph - N/A   Scattered Clouds
7:00 PM 84.2 °F 87.3 °F 68.0 °F 58% 29.80 in 6.2 mi South 5.8 mph - N/A   Mostly Cloudy
7:30 PM 84.2 °F 88.4 °F 69.8 °F 62% 29.80 in 6.2 mi SW 5.8 mph - N/A   Mostly Cloudy
8:00 PM 84.2 °F 88.4 °F 69.8 °F 62% 29.83 in 6.2 mi SW 4.6 mph - N/A   Mostly Cloudy
8:30 PM 82.4 °F 86.3 °F 69.8 °F 66% 29.83 in 5.6 mi Calm Calm - N/A   Scattered Clouds
9:00 PM 82.4 °F 86.3 °F 69.8 °F 66% 29.86 in 5.6 mi Calm Calm - N/A   Scattered Clouds
9:30 PM 84.2 °F 86.6 °F 66.2 °F 55% 29.86 in 5.6 mi NNW 3.5 mph - N/A   Scattered Clouds
10:00 PM 82.4 °F 85.4 °F 68.0 °F 62% 29.86 in 5.6 mi Calm Calm - N/A   Scattered Clouds
10:30 PM 82.4 °F 86.3 °F 69.8 °F 66% 29.86 in 5.6 mi West 4.6 mph - N/A   Scattered Clouds
11:00 PM 82.4 °F 85.4 °F 68.0 °F 62% 29.86 in 5.6 mi North 2.3 mph - N/A   Scattered Clouds
11:30 PM 80.6 °F 83.9 °F 69.8 °F 70% 29.86 in 5.6 mi North 2.3 mph - N/A   Scattered Clouds